EW0237 Burke VA US current weather conditions

sailwx.info

Wind from 135

Air temperature 3.9° C
Dewpoint 0.2° C

Last reported at 2019-Dec-06 14:07 UTC.
Time now 2019-Dec-06 15:16 UTC

Location: N 38°48' W 077°15'.
View on Google Maps.

See reports from other nearby stations

  
Tides and Currents Weather Stations Pressure Air Temp Water Temp Dewpoint Dewpoint Depression Visibility Wind Speed Wind Dir Waves Ship Positions
date/time (UTC)wind fromknots sea level pressurealtimeterstation pressurevisibilityair tempwater tempwave heightnotes
2019-Dec-06 14:07 135 3.9
2019-Dec-06 13:57 135 3.3
2019-Dec-06 13:47 180 2.8
2019-Dec-06 13:37 157 2.8
2019-Dec-06 13:27 112 2.2
2019-Dec-06 13:17 135 1.1
2019-Dec-06 13:07 045 -0.0
2019-Dec-06 12:57 067 -0.6
2019-Dec-06 12:47 157 -1.1
2019-Dec-06 12:37 090 -1.1
2019-Dec-06 12:27 112 -1.1
2019-Dec-06 12:17 112 -1.1
2019-Dec-06 12:07 067 -1.1
2019-Dec-06 11:57 067 -1.1
2019-Dec-06 11:47 135 -0.6
2019-Dec-06 11:37 135 -1.1
2019-Dec-06 11:27 112 -1.1
2019-Dec-06 11:17 112 -0.6
2019-Dec-06 11:07 112 -0.6
2019-Dec-06 10:57 067 -0.6
2019-Dec-06 10:47 067 -0.6
2019-Dec-06 10:37 067 -0.6
2019-Dec-06 10:27 067 -0.0
2019-Dec-06 10:17 067 -0.0
2019-Dec-06 10:07 067 -0.0
2019-Dec-06 09:57 067 -0.0
2019-Dec-06 09:47 112 -0.0
2019-Dec-06 09:37 112 -0.0
2019-Dec-06 09:27 112 -0.0
2019-Dec-06 09:17 135 -0.0
2019-Dec-06 09:07 135 -0.0
2019-Dec-06 08:57 135 -0.0
2019-Dec-06 08:47 135 -0.0
2019-Dec-06 08:37 135 -0.0
2019-Dec-06 08:27 135 -0.0
2019-Dec-06 08:17 135 0.6
2019-Dec-06 08:07 135 0.6
2019-Dec-06 07:57 135 0.6
2019-Dec-06 07:47 135 0.6
2019-Dec-06 07:37 135 0.6
2019-Dec-06 07:27 135 0.6
2019-Dec-06 07:17 135 0.6
2019-Dec-06 07:07 135 0.6
2019-Dec-06 06:57 135 0.6
2019-Dec-06 06:47 135 0.6
2019-Dec-06 06:37 135 0.6
2019-Dec-06 06:27 135 0.6
2019-Dec-06 06:17 135 0.6
2019-Dec-06 06:07 135 0.6
2019-Dec-06 05:57 135 0.6
2019-Dec-06 05:47 135 0.6
2019-Dec-06 05:37 337 0.6
2019-Dec-06 05:27 337 0.6
2019-Dec-06 05:17 337 -0.0
2019-Dec-06 05:07 315 -0.0
2019-Dec-06 04:57 315 -0.0
2019-Dec-06 04:47 315 -0.0
2019-Dec-06 04:37 315 0.6
2019-Dec-06 04:26 315 -0.0
2019-Dec-06 04:16 315 -0.0
2019-Dec-06 04:06 315 -0.0
2019-Dec-06 03:56 315 -0.0
2019-Dec-06 03:46 315 -0.0
2019-Dec-06 03:36 315 -0.0
2019-Dec-06 03:26 315 -0.0
2019-Dec-06 03:16 315 -0.0
2019-Dec-06 03:06 315 -0.0
2019-Dec-06 02:56 315 -0.0
2019-Dec-06 02:46 315 0.6
2019-Dec-06 02:36 315 0.6
2019-Dec-06 02:26 045 -0.0
2019-Dec-06 02:16 067 -0.0
2019-Dec-06 02:06 067 0.6
2019-Dec-06 01:56 067 0.6
2019-Dec-06 01:46 067 1.1
2019-Dec-06 01:36 067 1.1
2019-Dec-06 01:26 067 1.1
2019-Dec-06 01:16 067 1.1
2019-Dec-06 01:06 090 1.7
2019-Dec-06 00:56 090 1.7
2019-Dec-06 00:46 090 2.2
2019-Dec-06 00:36 090 2.2
2019-Dec-06 00:26 337 2.8
2019-Dec-06 00:16 337 3.3
2019-Dec-06 00:06 022 3.3
2019-Dec-05 23:56 337 3.3
2019-Dec-05 23:46 315 3.3
2019-Dec-05 23:36 292 3.3
2019-Dec-05 23:26 292 3.9
2019-Dec-05 23:16 292 3.9
2019-Dec-05 23:05 202 4.4
2019-Dec-05 22:55 292 5.0
2019-Dec-05 22:45 292 5.0
2019-Dec-05 22:35 315 5.6
2019-Dec-05 22:25 337 5.6
2019-Dec-05 22:15 292 5.6
2019-Dec-05 22:05 292 6.1
2019-Dec-05 21:55 292 1 gusting 1 6.1
2019-Dec-05 21:45 315 6.1
2019-Dec-05 21:35 292 2 gusting 2 6.7
2019-Dec-05 21:25 315 6.7
2019-Dec-05 21:15 270 6.7
2019-Dec-05 21:05 315 1 gusting 4 6.7
2019-Dec-05 20:55 292 7.2
2019-Dec-05 20:44 022 7.2
2019-Dec-05 20:34 315 0 gusting 0 7.8
2019-Dec-05 20:24 315 7.8
2019-Dec-05 20:14 247 0 gusting 1 7.8
2019-Dec-05 20:04 270 7.8
2019-Dec-05 19:54 337 6 gusting 6 7.8
2019-Dec-05 19:44 315 0 gusting 5 7.8
2019-Dec-05 19:34 315 2 gusting 4 7.8
2019-Dec-05 19:24 315 7.8
2019-Dec-05 19:14 315 7.2
2019-Dec-05 19:04 315 1 gusting 3 7.2
2019-Dec-05 18:54 292 6 gusting 6 7.8
2019-Dec-05 18:44 270 6 gusting 6 7.8
2019-Dec-05 18:34 292 4 gusting 4 7.8
2019-Dec-05 18:24 270 7.8
2019-Dec-05 18:14 292 4 gusting 4 7.8
2019-Dec-05 18:04 7.8
2019-Dec-05 17:54 270 7.8
2019-Dec-05 17:44 315 7.2
2019-Dec-05 17:34 225 6.7
2019-Dec-05 17:24 337 3 gusting 3 6.1
2019-Dec-05 17:14 315 0 gusting 14 6.1
2019-Dec-05 17:04 292 4 gusting 4 6.7
2019-Dec-05 16:54 337 6.7
2019-Dec-05 16:44 7.2
2019-Dec-05 16:34 315 3 gusting 3 6.7
2019-Dec-05 16:24 315 3 gusting 4 6.7
2019-Dec-05 16:14 315 9 gusting 9 6.7
2019-Dec-05 16:04 292 5 gusting 12 6.1
2019-Dec-05 15:54 315 1 gusting 8 6.7
2019-Dec-05 15:44 337 1 gusting 7 6.1
2019-Dec-05 15:34 292 1 gusting 2 5.6
2019-Dec-05 15:24 270 5.0
2019-Dec-05 15:14 045 5.0
2019-Dec-05 15:04 112 5.0
2019-Dec-05 14:53 225 3 gusting 3 5.6
2019-Dec-05 14:43 315 2 gusting 2 5.6
2019-Dec-05 14:33 247 5.0
2019-Dec-05 14:23 292 2 gusting 3 5.0
2019-Dec-05 14:13 315 2 gusting 6 4.4
2019-Dec-05 14:03 247 4.4
2019-Dec-05 13:53 270 4.4
2019-Dec-05 13:43 292 1 gusting 1 3.9
2019-Dec-05 13:33 3.9
2019-Dec-05 13:23 315 2 gusting 8 3.9
2019-Dec-05 13:13 337 1 gusting 3 3.3
2019-Dec-05 13:03 315 3.3
2019-Dec-05 12:53 315 4 gusting 4 2.8
2019-Dec-05 12:43 315 1 gusting 2 2.8
2019-Dec-05 12:33 315 2.8
2019-Dec-05 12:23 292 0 gusting 2 2.8
2019-Dec-05 12:13 270 2 gusting 6 2.8
2019-Dec-05 12:03 315 5 gusting 5 2.8
2019-Dec-05 11:53 292 2 gusting 2 2.8
2019-Dec-05 11:43 292 2.8
2019-Dec-05 11:33 270 2.8
2019-Dec-05 11:23 315 2.8
2019-Dec-05 11:13 292 2.8
2019-Dec-05 11:03 315 2.8
2019-Dec-05 10:53 292 2.8
2019-Dec-05 10:43 292 2 gusting 2 2.8
2019-Dec-05 10:33 225 2.8
2019-Dec-05 10:23 270 2.8
2019-Dec-05 10:13 337 2.8
2019-Dec-05 10:03 292 2.8
2019-Dec-05 09:53 315 2.8
2019-Dec-05 09:43 337 2.8
2019-Dec-05 09:33 270 2.8
2019-Dec-05 09:23 315 2 gusting 6 2.8
2019-Dec-05 09:13 315 6 gusting 6 2.8
2019-Dec-05 09:03 337 5 gusting 5 3.3
2019-Dec-05 08:53 315 4 gusting 8 3.3
2019-Dec-05 08:43 315 3 gusting 3 2.8
2019-Dec-05 08:33 270 2.8
2019-Dec-05 08:23 292 2.8
2019-Dec-05 08:13 270 1 gusting 4 2.8
2019-Dec-05 08:03 247 2 gusting 3 2.8
2019-Dec-05 07:53 292 2.8
2019-Dec-05 07:43 270 2 gusting 2 2.8
2019-Dec-05 07:33 292 2.2
2019-Dec-05 07:23 270 2.2
2019-Dec-05 07:13 292 2.8
2019-Dec-05 07:03 270 2.8
2019-Dec-05 06:53 292 0 gusting 2 3.3
2019-Dec-05 06:43 3.3
2019-Dec-05 06:33 315 3.3
2019-Dec-05 06:23 270 3.3
2019-Dec-05 06:13 270 3.3
2019-Dec-05 06:03 247 3.3
2019-Dec-05 05:53 247 3.3
2019-Dec-05 05:43 247 3.3
2019-Dec-05 05:33 225 3.3
2019-Dec-05 05:23 270 3.9
2019-Dec-05 05:13 270 3.9
2019-Dec-05 05:03 225 3.9
2019-Dec-05 04:53 270 3.9
2019-Dec-05 04:43 292 3.9
2019-Dec-05 04:33 270 2 gusting 6 3.9
2019-Dec-05 04:23 315 2.2
2019-Dec-05 04:13 022 1.7
2019-Dec-05 04:03 337 1.7
2019-Dec-05 03:53 337 1.7
2019-Dec-05 03:43 247 1.7
2019-Dec-05 03:33 247 1.7
2019-Dec-05 03:23 022 1.7
2019-Dec-05 03:13 1.1
2019-Dec-05 03:03 1.7
2019-Dec-05 02:53 045 1.7
2019-Dec-05 02:43 225 1.7
2019-Dec-05 02:33 112 2.2
2019-Dec-05 02:23 112 2.2
2019-Dec-05 02:13 067 2.2
2019-Dec-05 02:03 067 2.8
2019-Dec-05 01:53 067 3.3
2019-Dec-05 01:43 022 3.9
2019-Dec-05 01:33 3.9
2019-Dec-05 01:23 4.4
2019-Dec-05 01:13 5.0
2019-Dec-05 01:03 5.0
2019-Dec-05 00:53 5.6
2019-Dec-05 00:43 5.6
2019-Dec-05 00:33 6.1
2019-Dec-05 00:22 315 6.1
2019-Dec-05 00:12 315 6.1
2019-Dec-05 00:02 270 6.7
2019-Dec-04 23:52 315 6.7
2019-Dec-04 23:42 337 6.7
2019-Dec-04 23:32 315 7.2
2019-Dec-04 23:22 337 7.2
2019-Dec-04 23:12 292 7.2
2019-Dec-04 23:02 315 7.2
2019-Dec-04 22:52 7.8
2019-Dec-04 22:42 315 7.8
2019-Dec-04 22:32 315 7.8
2019-Dec-04 22:22 315 1 gusting 1 7.8
2019-Dec-04 22:12 292 7.8
2019-Dec-04 22:02 315 7.8
2019-Dec-04 21:52 337 7.8
2019-Dec-04 21:42 270 7.8
2019-Dec-04 21:32 247 8.3
2019-Dec-04 21:22 247 8.3
2019-Dec-04 21:12 247 8.3
2019-Dec-04 21:02 045 8.3
2019-Dec-04 20:52 292 8.9
2019-Dec-04 20:42 112 8.9
2019-Dec-04 20:32 112 8.9
2019-Dec-04 20:22 225 8.9
2019-Dec-04 20:12 202 9.4
2019-Dec-04 20:02 180 9.4
2019-Dec-04 19:52 247 9.4
2019-Dec-04 19:42 112 9.4
2019-Dec-04 19:32 112 9.4
2019-Dec-04 19:22 135 9.4
2019-Dec-04 19:12 247 9.4
2019-Dec-04 19:02 225 2 gusting 2 8.9
2019-Dec-04 18:52 180 9.4
2019-Dec-04 18:42 135 9.4
2019-Dec-04 18:32 157 9.4
2019-Dec-04 18:22 247 8.9
2019-Dec-04 18:12 225 8.9
2019-Dec-04 18:02 337 8.3
2019-Dec-04 17:52 180 8.3
2019-Dec-04 17:42 157 8.3
2019-Dec-04 17:32 067 7.8
2019-Dec-04 17:22 225 7.8
2019-Dec-04 17:12 180 6.7
2019-Dec-04 17:02 112 3 gusting 3 6.1
2019-Dec-04 16:52 247 6.1
2019-Dec-04 16:42 135 5.6
2019-Dec-04 16:32 157 5.6
2019-Dec-04 16:22 225 5.6
2019-Dec-04 16:12 247 5.0
2019-Dec-04 16:02 157 5.0
2019-Dec-04 15:52 180 5.0
2019-Dec-04 15:42 225 5.0
2019-Dec-04 15:32 202 3.9
2019-Dec-04 15:22 135 3.3
2019-Dec-04 15:12 202 2.8
2019-Dec-04 15:02 225 2.8